FW0237 Weather Reports


time (UTC)temp
F
wind
direction
speed
knots
gust
knots
rain 1hr
in
rain 24hr
in
rain mn
in
humidity
%
barometer
mb
20210518204000 75 37 0.9 5.2 0.00 0.00 0.00 33 1028.2
20210518203459 76 103 0.9 5.2 0.00 0.00 0.00 33 1028.1
20210518203000 76 273 1.7 7.0 0.00 0.00 0.00 36 1028.1
20210518202500 75 338 1.7 7.0 0.00 0.00 0.00 34 1028.2
20210518201958 76 113 0.9 6.1 0.00 0.00 0.00 35 1028.2
20210518201459 76 78 1.7 7.0 0.00 0.00 0.00 33 1028.2
20210518200959 75 11 1.7 7.8 0.00 0.00 0.00 34 1028.2
20210518200500 76 325 1.7 7.8 0.00 0.00 0.00 31 1028.4
20210518195958 76 327 0.9 5.2 0.00 0.00 0.00 31 1028.4
20210518195459 76 105 0.9 7.8 0.00 0.00 0.00 36 1028.4
20210518194958 76 65 0.9 7.8 0.00 0.00 0.00 34 1028.4
20210518194458 76 95 0.9 7.0 0.00 0.00 0.00 33 1028.4
20210518193959 76 63 0.9 5.2 0.00 0.00 0.00 34 1028.5
20210518193455 75 36 0.9 5.2 0.00 0.00 0.00 37 1028.7
20210518192958 75 81 0.9 4.3 0.00 0.00 0.00 36 1028.8
20210518192457 76 38 0.9 4.3 0.00 0.00 0.00 36 1028.7
20210518191957 75 15 0.9 4.3 0.00 0.00 0.00 35 1028.8
20210518191456 75 94 0.9 5.2 0.00 0.00 0.00 37 1028.8
20210518190956 76 342 0.9 5.2 0.00 0.00 0.00 36 1028.9
20210518190457 76 96 0.9 5.2 0.00 0.00 0.00 35 1028.9
20210518185955 75 111 0.9 6.1 0.00 0.00 0.00 37 1029.0
20210518185456 75 117 1.7 7.8 0.00 0.00 0.00 37 1029.0
20210518184959 75 107 1.7 7.8 0.00 0.00 0.00 35 1029.1
20210518184456 74 336 0.9 7.0 0.00 0.00 0.00 37 1029.2
20210518183956 74 78 0.9 6.1 0.00 0.00 0.00 36 1029.4
20210518183455 74 71 0.9 6.1 0.00 0.00 0.00 36 1029.4
20210518182957 74 78 0.9 5.2 0.00 0.00 0.00 35 1029.4
20210518182456 74 88 0.9 5.2 0.00 0.00 0.00 34 1029.5
20210518181957 75 339 0.0 1.7 0.00 0.00 0.00 35 1029.5
20210518181457 75 338 0.0 0.0 0.00 0.00 0.00 34 1029.6
20210518180956 75 141 0.0 3.5 0.00 0.00 0.00 33 1029.6
20210518180455 74 108 0.9 3.5 0.00 0.00 0.00 36 1029.7
20210518175954 74 203 0.9 4.3 0.00 0.00 0.00 35 1029.6
20210518175456 74 101 0.9 5.2 0.00 0.00 0.00 34 1029.6
20210518174955 74 80 0.9 5.2 0.00 0.00 0.00 34 1029.6
20210518174455 73 52 0.9 6.1 0.00 0.00 0.00 35 1029.6
20210518173954 74 90 0.9 6.1 0.00 0.00 0.00 34 1029.8
20210518173454 74 76 1.7 7.0 0.00 0.00 0.00 33 1029.9
20210518172954 75 137 1.7 7.0 0.00 0.00 0.00 37 1029.8
20210518172453 74 190 0.9 5.2 0.00 0.00 0.00 37 1030.0
20210518171955 74 331 0.9 6.1 0.00 0.00 0.00 35 1030.0
20210518171455 74 90 0.9 6.1 0.00 0.00 0.00 34 1030.1
20210518170953 73 134 0.9 7.8 0.00 0.00 0.00 36 1030.1
20210518170454 73 115 1.7 7.8 0.00 0.00 0.00 35 1030.2
20210518165953 74 124 1.7 7.8 0.00 0.00 0.00 37 1030.2
20210518165454 73 56 2.6 7.8 0.00 0.00 0.00 39 1030.2
20210518164953 73 22 1.7 7.0 0.00 0.00 0.00 39 1030.1
20210518164454 75 308 1.7 6.1 0.00 0.00 0.00 38 1030.2
20210518163953 74 190 1.7 6.1 0.00 0.00 0.00 41 1030.3
20210518163454 74 96 1.7 7.8 0.00 0.00 0.00 41 1030.2
20210518162957 73 86 1.7 7.8 0.00 0.00 0.00 42 1030.4
20210518162453 73 109 1.7 6.1 0.00 0.00 0.00 41 1030.3
20210518161954 74 328 1.7 6.1 0.00 0.00 0.00 41 1030.3
20210518161453 73 47 1.7 7.8 0.00 0.00 0.00 42 1030.4
20210518160955 73 63 1.7 7.8 0.00 0.00 0.00 42 1030.4
20210518160453 73 115 1.7 7.0 0.00 0.00 0.00 43 1030.4
20210518155953 73 319 1.7 7.8 0.00 0.00 0.00 46 1030.3
20210518155453 73 323 2.6 7.8 0.00 0.00 0.00 47 1030.5
20210518154951 73 9 2.6 7.0 0.00 0.00 0.00 46 1030.5
20210518154450 72 94 1.7 7.0 0.00 0.00 0.00 49 1030.5
20210518154000 73 115 1.7 5.2 0.00 0.00 0.00 48 1030.5
20210518153450 72 300 1.7 6.1 0.00 0.00 0.00 50 1030.6
20210518152949 72 310 1.7 7.8 0.00 0.00 0.00 48 1030.6
20210518152449 72 321 0.9 7.8 0.00 0.00 0.00 46 1030.6
20210518151949 73 290 0.9 2.6 0.00 0.00 0.00 46 1030.6
20210518151456 72 68 0.9 4.3 0.00 0.00 0.00 44 1030.6
20210518150949 72 63 1.7 4.3 0.00 0.00 0.00 44 1030.5
20210518150449 71 107 0.9 5.2 0.00 0.00 0.00 41 1030.6
20210518145948 71 49 0.9 5.2 0.00 0.00 0.00 45 1030.6
20210518145447 71 82 0.9 3.5 0.00 0.00 0.00 46 1030.6
20210518144947 71 45 0.9 3.5 0.00 0.00 0.00 45 1030.6
20210518144447 72 325 0.0 2.6 0.00 0.00 0.00 46 1030.5
20210518143948 71 51 0.0 0.9 0.00 0.00 0.00 47 1030.5
20210518143447 71 24 0.9 5.2 0.00 0.00 0.00 48 1030.5
20210518142949 71 140 0.9 5.2 0.00 0.00 0.00 50 1030.5
20210518142448 71 138 0.9 3.5 0.00 0.00 0.00 49 1030.4
20210518141947 70 355 0.9 5.2 0.00 0.00 0.00 52 1030.4
20210518141447 70 321 0.9 5.2 0.00 0.00 0.00 52 1030.3
20210518140948 70 69 0.9 3.5 0.00 0.00 0.00 53 1030.3
20210518140446 70 98 0.9 3.5 0.00 0.00 0.00 55 1030.2
20210518135947 69 92 0.9 6.1 0.00 0.00 0.00 58 1030.2
20210518135446 69 92 0.9 6.1 0.00 0.00 0.00 59 1030.2
20210518134946 69 88 0.0 1.7 0.00 0.00 0.00 55 1030.3
20210518134446 68 92 0.0 1.7 0.00 0.00 0.00 54 1030.2
20210518133948 68 96 0.0 0.0 0.00 0.00 0.00 56 1030.2
20210518133448 68 90 0.0 0.0 0.00 0.00 0.00 57 1030.2
20210518132945 68 333 0.0 0.0 0.00 0.00 0.00 58 1030.2
20210518132446 68 74 0.0 0.0 0.00 0.00 0.00 60 1030.1
20210518131947 68 323 0.0 0.0 0.00 0.00 0.00 61 1029.9
20210518131444 67 103 0.0 2.6 0.00 0.00 0.00 62 1030.0
20210518130945 67 339 0.0 2.6 0.00 0.00 0.00 63 1029.9
20210518130444 67 338 0.0 4.3 0.00 0.00 0.00 64 1029.8
20210518125941 67 327 0.0 4.3 0.00 0.00 0.00 64 1029.8
20210518125441 67 89 0.9 3.5 0.00 0.00 0.00 64 1029.7
20210518124943 67 86 0.9 3.5 0.00 0.00 0.00 64 1029.6
20210518124443 67 79 0.0 2.6 0.00 0.00 0.00 65 1029.6
20210518123942 67 84 0.9 2.6 0.00 0.00 0.00 66 1029.6
20210518123445 66 85 0.9 3.5 0.00 0.00 0.00 67 1029.6
20210518122940 66 87 0.9 3.5 0.00 0.00 0.00 67 1029.6
20210518122442 66 88 0.9 3.5 0.00 0.00 0.00 68 1029.4
20210518121942 65 87 0.9 3.5 0.00 0.00 0.00 71 1029.4
20210518121443 65 88 0.0 2.6 0.00 0.00 0.00 74 1029.3
20210518120941 65 90 0.0 1.7 0.00 0.00 0.00 76 1029.3
20210518120441 64 92 0.9 2.6 0.00 0.00 0.00 77 1029.3
20210518115942 64 91 0.9 3.5 0.00 0.00 0.00 78 1029.2
20210518115441 64 95 0.9 3.5 0.00 0.00 0.00 80 1029.2
20210518114942 63 102 0.0 2.6 0.00 0.00 0.00 80 1029.2
20210518114440 63 82 0.0 1.7 0.00 0.00 0.00 82 1029.1
20210518113942 62 81 0.9 4.3 0.00 0.00 0.00 83 1029.2
20210518113442 62 81 0.9 4.3 0.00 0.00 0.00 83 1029.0
20210518112942 61 76 0.9 3.5 0.00 0.00 0.00 85 1029.0
20210518112441 61 77 0.9 3.5 0.00 0.00 0.00 86 1028.9
20210518111944 60 83 0.9 3.5 0.00 0.00 0.00 88 1028.8
20210518111446 60 85 0.9 3.5 0.00 0.00 0.00 89 1028.8
20210518110942 59 82 0.0 1.7 0.00 0.00 0.00 90 1028.7
20210518110440 58 81 0.0 1.7 0.00 0.00 0.00 91 1028.6
20210518105940 58 80 0.0 0.0 0.00 0.00 0.00 91 1028.6
20210518105441 57 80 0.0 0.0 0.00 0.00 0.00 92 1028.6
20210518104941 57 76 0.0 0.0 0.00 0.00 0.00 92 1028.6
20210518104440 56 74 0.0 0.0 0.00 0.00 0.00 92 1028.5
20210518103940 56 75 0.0 0.9 0.00 0.00 0.00 92 1028.4
20210518103441 56 75 0.0 0.9 0.00 0.00 0.00 92 1028.4
20210518102943 56 75 0.0 0.0 0.00 0.00 0.00 93 1028.2
20210518102446 55 75 0.0 0.0 0.00 0.00 0.00 93 1028.3
20210518101940 55 75 0.0 0.0 0.00 0.00 0.00 93 1028.2
20210518101441 55 75 0.0 0.0 0.00 0.00 0.00 92 1028.0
20210518100940 55 75 0.0 0.0 0.00 0.00 0.00 92 1028.0
20210518100442 55 75 0.0 0.0 0.00 0.00 0.00 92 1027.8
20210518095941 55 75 0.0 0.0 0.00 0.00 0.00 92 1027.8
20210518095439 55 75 0.0 0.0 0.00 0.00 0.00 92 1027.8
20210518094938 55 75 0.0 0.0 0.00 0.00 0.00 92 1027.7
20210518094439 55 75 0.0 0.0 0.00 0.00 0.00 92 1027.7
20210518093938 55 75 0.0 0.0 0.00 0.00 0.00 92 1027.6
20210518093438 55 75 0.0 0.0 0.00 0.00 0.00 92 1027.6
20210518092940 55 75 0.0 0.0 0.00 0.00 0.00 92 1027.6
20210518092438 56 75 0.0 0.0 0.00 0.00 0.00 92 1027.4
20210518091944 56 75 0.0 0.0 0.00 0.00 0.00 92 1027.6
20210518091439 56 75 0.0 0.0 0.00 0.00 0.00 92 1027.5
20210518090937 56 75 0.0 0.0 0.00 0.00 0.00 93 1027.5
20210518090436 56 75 0.0 0.0 0.00 0.00 0.00 93 1027.6
20210518085936 56 75 0.0 0.0 0.00 0.00 0.00 92 1027.6
20210518085438 56 75 0.0 0.0 0.00 0.00 0.00 92 1027.6
20210518084943 56 75 0.0 0.0 0.00 0.00 0.00 92 1027.5
20210518084436 56 75 0.0 0.0 0.00 0.00 0.00 92 1027.6
20210518083936 56 75 0.0 0.0 0.00 0.00 0.00 92 1027.5
20210518083432 56 75 0.0 0.0 0.00 0.00 0.00 92 1027.4
20210518082933 56 75 0.0 0.0 0.00 0.00 0.00 93 1027.4
20210518082432 56 75 0.0 0.0 0.00 0.00 0.00 92 1027.4
20210518081934 56 75 0.0 0.0 0.00 0.00 0.00 92 1027.4
20210518081433 56 75 0.0 0.0 0.00 0.00 0.00 92 1027.4
20210518080942 56 75 0.0 0.0 0.00 0.00 0.00 92 1027.4
20210518080432 56 75 0.0 0.0 0.00 0.00 0.00 92 1027.4
20210518075932 56 75 0.0 0.0 0.00 0.00 0.00 92 1027.4
20210518075435 56 75 0.0 0.0 0.00 0.00 0.00 92 1027.4
20210518074934 56 75 0.0 0.0 0.00 0.00 0.00 92 1027.5
20210518074430 56 75 0.0 0.0 0.00 0.00 0.00 92 1027.4
20210518073932 57 75 0.0 0.0 0.00 0.00 0.00 92 1027.4
20210518073440 57 75 0.0 0.0 0.00 0.00 0.00 92 1027.5
20210518072930 57 75 0.0 0.0 0.00 0.00 0.00 92 1027.4
20210518072431 57 75 0.0 0.0 0.00 0.00 0.00 92 1027.6
20210518071935 57 75 0.0 0.0 0.00 0.00 0.00 91 1027.6
20210518071434 57 75 0.0 0.0 0.00 0.00 0.00 91 1027.4
20210518070932 57 75 0.0 0.0 0.00 0.00 0.00 91 1027.4
20210518070430 57 75 0.0 0.0 0.00 0.00 0.00 91 1027.4
20210518065930 57 75 0.0 0.0 0.00 0.00 0.00 91 1027.4
20210518065429 58 75 0.0 0.0 0.00 0.00 0.00 91 1027.3
20210518064930 58 75 0.0 0.0 0.00 0.00 0.00 91 1027.3
20210518064428 58 75 0.0 0.0 0.00 0.00 0.00 90 1027.3
20210518063928 58 75 0.0 0.0 0.00 0.00 0.00 91 1027.3
20210518063429 58 75 0.0 0.0 0.00 0.00 0.00 91 1027.3
20210518062930 58 75 0.0 0.0 0.00 0.00 0.00 90 1027.4
20210518062428 58 75 0.0 0.0 0.00 0.00 0.00 90 1027.4
20210518061929 58 75 0.0 0.0 0.00 0.00 0.00 90 1027.4
20210518061428 58 75 0.0 0.0 0.00 0.00 0.00 90 1027.2
20210518060927 58 75 0.0 0.0 0.00 0.00 0.00 90 1027.3
20210518060426 58 75 0.0 0.0 0.00 0.00 0.00 90 1027.3
20210518055928 59 75 0.0 0.0 0.00 0.00 0.00 89 1027.2
20210518055426 59 75 0.0 0.0 0.00 0.00 0.00 89 1027.3
20210518054927 59 75 0.0 0.0 0.00 0.00 0.00 89 1027.3
20210518054428 59 75 0.0 0.9 0.00 0.00 0.00 90 1027.4
20210518053926 59 75 0.0 0.9 0.00 0.00 0.00 89 1027.4
20210518053431 59 75 0.0 0.0 0.00 0.00 0.00 89 1027.4
20210518052927 59 75 0.0 0.0 0.00 0.00 0.00 89 1027.4
20210518052423 59 75 0.0 0.0 0.00 0.00 0.00 89 1027.4
20210518051925 59 75 0.0 0.0 0.00 0.00 0.00 89 1027.4
20210518051424 59 75 0.0 0.0 0.00 0.00 0.00 88 1027.5
20210518050925 59 76 0.0 0.0 0.00 0.00 0.00 88 1027.6
20210518050423 59 76 0.0 0.0 0.00 0.00 0.00 88 1027.5
20210518045924 60 76 0.0 0.0 0.00 0.00 0.00 87 1027.6
20210518045424 60 75 0.0 0.0 0.00 0.00 0.00 88 1027.4
20210518044924 60 75 0.0 0.0 0.00 0.00 0.00 87 1027.5
20210518044423 60 75 0.0 0.0 0.00 0.00 0.00 87 1027.6
20210518043924 60 75 0.0 0.0 0.00 0.00 0.00 87 1027.6
20210518043422 60 75 0.0 0.0 0.00 0.00 0.00 86 1027.4
20210518042921 60 75 0.0 0.0 0.00 0.00 0.00 86 1027.6
20210518042419 60 75 0.0 0.0 0.00 0.00 0.00 86 1027.6
20210518041920 60 75 0.0 0.0 0.00 0.00 0.00 86 1027.6
20210518041419 60 75 0.0 0.0 0.00 0.00 0.00 85 1027.8
20210518040922 60 75 0.0 0.0 0.00 0.00 0.00 85 1027.9
20210518040421 60 75 0.0 0.0 0.00 0.00 0.00 85 1027.9
20210518035919 60 75 0.0 0.0 0.00 0.00 0.00 84 1027.9
20210518035417 61 75 0.0 0.0 0.00 0.00 0.00 83 1027.8
20210518034916 61 75 0.0 0.0 0.00 0.00 0.00 83 1027.8
20210518034418 61 75 0.0 0.0 0.00 0.00 0.00 82 1027.8
20210518033917 61 75 0.0 0.0 0.00 0.00 0.00 81 1027.9
20210518033418 61 75 0.0 0.0 0.00 0.00 0.00 81 1027.8
20210518032917 62 75 0.0 0.0 0.00 0.00 0.00 80 1027.7
20210518032415 62 76 0.0 0.0 0.00 0.00 0.00 79 1027.7
20210518031914 62 76 0.0 0.0 0.00 0.00 0.00 79 1027.6
20210518031414 62 76 0.0 0.0 0.00 0.00 0.00 78 1027.7
20210518030914 62 76 0.0 0.0 0.00 0.00 0.00 78 1027.8
20210518030414 62 76 0.0 0.0 0.00 0.00 0.00 78 1027.8
20210518025914 62 74 0.0 0.0 0.00 0.00 0.00 79 1027.8
20210518025413 62 74 0.0 0.0 0.00 0.00 0.00 79 1027.8
20210518024914 62 74 0.0 0.0 0.00 0.00 0.00 78 1027.8
20210518024412 62 74 0.0 0.0 0.00 0.00 0.00 78 1027.8
20210518023912 62 74 0.0 0.0 0.00 0.00 0.00 77 1027.8
20210518023410 62 74 0.0 0.0 0.00 0.00 0.00 76 1027.6
20210518022913 62 74 0.0 0.0 0.00 0.00 0.00 76 1027.7
20210518022410 63 74 0.0 0.0 0.00 0.00 0.00 75 1027.7
20210518021910 63 74 0.0 0.0 0.00 0.00 0.00 75 1027.6
20210518021410 63 74 0.0 0.0 0.00 0.00 0.00 74 1027.6
20210518020912 63 74 0.0 0.0 0.00 0.00 0.00 73 1027.4
20210518020411 63 74 0.0 0.0 0.00 0.00 0.00 72 1027.5
20210518015910 63 74 0.0 0.0 0.00 0.00 0.00 72 1027.5
20210518015410 63 74 0.0 0.0 0.00 0.00 0.00 71 1027.4
20210518014912 64 74 0.0 0.0 0.00 0.00 0.00 70 1027.4
20210518014410 64 74 0.0 0.0 0.00 0.00 0.00 69 1027.3
20210518013911 64 74 0.0 0.0 0.00 0.00 0.00 68 1027.3
20210518013411 64 74 0.0 0.0 0.00 0.00 0.00 67 1027.2
20210518012912 64 74 0.0 0.0 0.00 0.00 0.00 65 1027.2
20210518012411 64 74 0.0 0.0 0.00 0.00 0.00 62 1027.3
20210518011911 65 74 0.0 0.9 0.00 0.00 0.00 60 1027.3
20210518011410 65 74 0.0 0.9 0.00 0.00 0.00 58 1027.2
20210518010911 65 74 0.0 0.0 0.00 0.00 0.00 55 1027.3
20210518010410 65 74 0.0 0.0 0.00 0.00 0.00 54 1027.2
20210518005912 65 74 0.0 0.0 0.00 0.00 0.00 52 1027.1
20210518005412 65 74 0.0 0.0 0.00 0.00 0.00 50 1027.1
20210518004911 66 74 0.0 0.0 0.00 0.00 0.00 49 1027.1
20210518004409 66 74 0.0 0.0 0.00 0.00 0.00 48 1027.1
20210518003909 66 74 0.0 0.9 0.00 0.00 0.00 47 1027.0
20210518003409 66 74 0.0 0.9 0.00 0.00 0.00 46 1027.0
20210518002909 66 75 0.0 2.6 0.00 0.00 0.00 45 1027.0
20210518002406 67 77 0.0 2.6 0.00 0.00 0.00 45 1027.1
20210518001908 67 80 0.0 1.7 0.00 0.00 0.00 44 1027.0
20210518001406 67 80 0.0 1.7 0.00 0.00 0.00 46 1027.1
20210518000904 67 78 0.0 0.9 0.00 0.00 0.00 45 1027.1
20210518000404 67 78 0.0 0.0 0.00 0.00 0.00 46 1027.0
20210517235907 67 79 0.0 0.0 0.00 0.00 0.00 45 1027.0
20210517235404 67 78 0.0 0.0 0.00 0.00 0.00 45 1027.0
20210517234905 67 78 0.0 0.0 0.00 0.00 0.00 44 1027.0
20210517234404 68 78 0.0 4.3 0.00 0.00 0.00 43 1026.9
20210517233904 68 71 0.9 4.3 0.00 0.00 0.00 43 1026.8
20210517233405 68 76 0.0 3.5 0.00 0.00 0.00 43 1026.8
20210517232906 68 76 0.0 2.6 0.00 0.00 0.00 42 1026.8
20210517232404 68 73 0.0 2.6 0.00 0.00 0.00 42 1026.7
20210517231904 68 69 0.0 2.6 0.00 0.00 0.00 41 1026.7
20210517231405 68 68 0.9 3.5 0.00 0.00 0.00 40 1026.6
20210517230904 68 56 0.9 3.5 0.00 0.00 0.00 39 1026.5
20210517230406 68 77 0.0 1.7 0.00 0.00 0.00 39 1026.6
20210517225902 69 78 0.0 4.3 0.00 0.00 0.00 39 1026.6
20210517225402 69 86 1.7 7.0 0.00 0.00 0.00 41 1026.5
20210517224903 69 92 1.7 7.0 0.00 0.00 0.00 39 1026.5
20210517224402 69 83 0.9 3.5 0.00 0.00 0.00 40 1026.5
20210517223902 70 63 0.0 2.6 0.00 0.00 0.00 40 1026.6
20210517223405 69 67 0.0 0.0 0.00 0.00 0.00 41 1026.5
20210517222903 69 71 0.0 0.0 0.00 0.00 0.00 41 1026.5
20210517222402 70 59 0.9 5.2 0.00 0.00 0.00 41 1026.5
20210517221904 69 88 1.7 7.8 0.00 0.00 0.00 42 1026.4
20210517221407 70 60 0.9 7.8 0.00 0.00 0.00 41 1026.5
20210517220900 70 86 0.9 7.0 0.00 0.00 0.00 40 1026.5
20210517220401 70 104 0.9 2.6 0.00 0.00 0.00 40 1026.4
20210517215902 70 80 0.9 7.0 0.00 0.00 0.00 40 1026.4
20210517215400 70 98 0.9 7.0 0.00 0.00 0.00 39 1026.4
20210517214902 71 96 0.9 5.2 0.00 0.00 0.00 40 1026.5
20210517214403 70 76 0.9 6.1 0.00 0.00 0.00 38 1026.3
20210517213859 71 88 0.9 6.1 0.00 0.00 0.00 37 1026.4
20210517213403 71 115 0.9 6.1 0.00 0.00 0.00 37 1026.3
20210517212900 71 84 0.9 6.1 0.00 0.00 0.00 36 1026.4
20210517212359 71 76 1.7 5.2 0.00 0.00 0.00 37 1026.4
20210517211858 71 240 1.7 5.2 0.00 0.00 0.00 37 1026.3
20210517211359 72 122 0.9 5.2 0.00 0.00 0.00 38 1026.2
20210517210859 71 109 0.9 3.5 0.00 0.00 0.00 38 1026.3
20210517210356 72 268 0.9 6.1 0.00 0.00 0.00 37 1026.2
20210517205856 72 102 0.9 6.1 0.00 0.00 0.00 37 1026.1
20210517205357 72 96 0.9 5.2 0.00 0.00 0.00 37 1026.1
20210517204856 73 36 1.7 8.7 0.00 0.00 0.00 35 1026.2
20210517204356 73 84 1.7 8.7 0.00 0.00 0.00 37 1026.2